Location: Auckland
(36.8670°S, 174.7670°E)
Time: 02:32:41
(UTC+12:00)

Meteor 1-26 Rocket - Pass Details

Date: 24 January 2019
Orbit: 821 x 914 km, 81.3° (Epoch: 19 April)

Event Time Altitude Azimuth Distance (km) Brightness Sun altitude
Exits shadow 22:55:37 47° 17° (NNE) 1,174 4.5 -22.7°
Maximum altitude 22:57:19 71° 84° (E) 942 4.2 -23.0°
Drops below altitude 10° 23:03:04 10° 167° (SSE) 2,538 7.1 -23.7°
Sets 23:05:29 0° 168° (SSE) 3,468 8.0 -24.0°
